[[{"header":{"parameterUnit":"m.s-1","parameterCategory":1,"la1":30.2991,"la2":30.254,"lo1":-89.0895,"lo2":-89.0444,"dx":0.0017,"dy":0.0017,"nx":28,"ny":28,"refTime":"2022-11-05T15:00:00:Z","depth":0,"parameterNumber":2,"parameterNumberName":"U-component_of_WINDS"},"data":[0,0,0,0,0,0,0,0,0,0,0,0,0,0,0,0,0,0,0,0,0,0,0,0,0,0,0,0,0,0,0,0,0,0,0,0,0,0,0,0,0,0,0,0,0,0,0,0,0,0,0,0,0,0,0,0,0,0,-2.2819,-2.2819,0,-2.2763,-2.2763,-2.2762,-2.2648,-2.2646,-2.2644,-2.2642,-2.2586,-2.2586,-2.2587,0,0,0,0,0,0,0,0,0,0,0,0,0,-2.2832,-2.2832,-2.282,-2.2819,-2.2818,-2.2763,-2.2763,-2.2762,-2.2649,-2.2646,-2.2643,-2.2641,-2.2585,-2.2586,-2.2587,0,0,0,0,0,0,0,0,0,0,0,0,0,-2.2806,-2.2832,-2.282,-2.2755,-2.2749,-2.2764,-2.2763,-2.2762,-2.2649,-2.2646,-2.2643,-2.2639,-2.2585,-2.2586,-2.2587,-2.266,0,0,-2.259,-2.259,0,0,0,0,0,0,0,0,-2.2808,-2.2806,-2.2765,-2.276,-2.2752,-2.2709,-2.2746,-2.2728,-2.265,-2.2687,-2.2642,-2.2638,-2.263,-2.2627,-2.2624,-2.2658,-2.2655,-2.259,-2.259,-2.2591,-2.2591,0,0,0,0,0,0,0,-2.281,-2.2808,-2.2797,-2.2765,-2.2757,-2.273,-2.2722,-2.2742,-2.2678,-2.2684,-2.2675,-2.267,-2.2625,-2.2623,-2.2621,-2.2655,-2.259,-2.2591,-2.2591,-2.2591,-2.2748,-2.2752,0,0,0,0,0,0,-2.2821,-2.281,-2.2799,-2.2796,-2.2772,-2.2732,-2.2724,-2.2727,-2.2678,-2.2667,-2.2673,-2.2665,-2.2623,-2.262,-2.2619,-2.2703,-2.2591,-2.2592,-2.2592,-2.2745,-2.2749,-2.2753,0,0,0,0,0,0,-2.2821,-2.2821,-2.2801,-2.28,-2.2796,-2.2736,-2.274,-2.2727,-2.2725,-2.267,-2.2658,-2.2682,-2.262,-2.2618,-2.2651,-2.2699,-2.2592,-2.2593,-2.274,-2.2746,-2.2751,-2.2871,0,0,0,0,0,0,-2.2822,-2.2822,-2.2848,-2.2802,-2.2796,-2.2834,-2.2742,-2.2729,-2.2726,-2.2715,-2.2675,-2.2665,-2.2617,-2.2651,-2.2652,-2.2698,-2.2594,-2.2736,-2.2743,-2.2749,-2.2862,-2.2879,-2.2894,0,0,0,0,0,-2.2823,-2.2884,-2.285,-2.2849,-2.2828,-2.2837,-2.2834,-2.2777,-2.2731,-2.2757,-2.2722,-2.2666,-2.2694,-2.2655,-2.2656,-2.2703,-2.2732,-2.2741,-2.2749,-2.2855,-2.2876,-2.2894,0,0,0,0,0,0,-2.2937,-2.2877,-2.2838,-2.2886,-2.2868,-2.2818,-2.2849,-2.2802,-2.2796,-2.2786,-2.2717,-2.2709,-2.2752,-2.2731,-2.2688,-2.2773,-2.2704,-2.2713,-2.2785,-2.2804,-2.282,-2.2824,-2.2594,0,0,0,0,0,-2.2968,-2.298,-2.2926,-2.2974,-2.2966,-2.291,-2.2912,-2.287,-2.2848,-2.284,-2.2807,-2.2789,-2.2793,-2.2798,-2.2799,-2.2859,-2.2849,-2.2892,-2.2908,-2.2922,-2.293,-2.2962,-2.298,-2.278,-2.278,-2.2779,0,0,-2.3032,-2.3,-2.3011,-2.2996,-2.2977,-2.2991,-2.2904,-2.2923,-2.2933,-2.2843,-2.2872,-2.2849,-2.2823,-2.2871,-2.289,-2.2855,-2.2983,-2.2932,-2.2943,-2.2944,-2.2972,-2.2991,-2.3008,-2.2785,-2.2784,-2.2783,0,0,-2.3155,-2.3132,-2.3169,-2.3152,-2.3124,-2.3087,-2.3097,-2.3054,-2.3035,-2.3064,-2.2997,-2.3009,-2.3018,-2.3003,-2.2997,-2.3118,-2.3066,-2.312,-2.3204,-2.3236,-2.3252,-2.3265,-2.3309,-2.3326,-2.3128,-2.3129,-2.3129,0,-2.3238,-2.3256,-2.3195,-2.3218,-2.3214,-2.3133,-2.3172,-2.3158,-2.3133,-2.3132,-2.3093,-2.3103,-2.3081,-2.3124,-2.3154,-2.3152,-2.3161,-2.3124,-2.3254,-2.3267,-2.3279,-2.332,-2.3337,-2.3136,-2.3135,-2.3134,-2.3133,0,-2.336,-2.3374,-2.3408,-2.3385,-2.3385,-2.3415,-2.336,-2.3367,-2.3327,-2.3294,-2.3326,-2.3296,-2.329,-2.3298,-2.3258,-2.3337,-2.3316,-2.3266,-2.3196,-2.3306,-2.3344,-2.3359,-2.3145,-2.3143,-2.3141,-2.3139,0,0,-2.3552,-2.3496,-2.351,-2.3499,-2.3464,-2.3474,-2.3502,-2.3497,-2.3505,-2.3491,-2.3513,-2.3524,-2.3478,-2.3472,-2.343,-2.3458,-2.3557,-2.3405,-2.3403,-2.3435,-2.3643,-2.3681,-2.37,-2.3523,-2.3526,-2.3528,-2.3646,0,-2.3667,-2.3711,-2.3658,-2.3714,-2.3727,-2.3652,-2.3676,-2.3658,-2.3629,-2.3637,-2.3604,-2.3613,-2.3552,-2.3548,-2.3573,-2.354,-2.3598,-2.353,-2.3544,-2.3545,-2.3553,-2.3719,-2.3758,-2.3871,-2.366,-2.3662,-2.3664,0,-2.3807,-2.38,-2.3857,-2.382,-2.3823,-2.3846,-2.3838,-2.3846,-2.3824,-2.3801,-2.3795,-2.3745,-2.3772,-2.3704,-2.374,-2.3696,-2.3699,-2.3684,-2.3687,-2.3685,-2.3611,-2.3723,-2.3905,-2.3922,-2.3686,-2.3685,-2.3683,0,-2.3942,-2.3947,-2.3982,-2.3975,-2.3932,-2.3951,-2.3934,-2.3909,-2.391,-2.3903,-2.3903,-2.39,-2.3898,-2.3897,-2.3849,-2.3804,-2.3891,-2.3819,-2.3874,-2.3875,-2.3895,-2.3894,-2.408,-2.3897,-2.3897,-2.3897,-2.3896,0,-2.4076,-2.4115,-2.4042,-2.4064,-2.4105,-2.4045,-2.4088,-2.4063,-2.4042,-2.4059,-2.3994,-2.4011,-2.3946,-2.3956,-2.3919,-2.3955,-2.3955,-2.3938,-2.3927,-2.3943,-2.3946,-2.3944,-2.3935,-2.3901,-2.39,-2.3899,-2.3898,0,-2.4234,-2.4187,-2.422,-2.4178,-2.4168,-2.42,-2.4164,-2.4183,-2.4151,-2.4173,-2.4174,-2.4123,-2.4133,-2.4084,-2.4085,-2.406,-2.4115,-2.4091,-2.4123,-2.4115,-2.4173,-2.4168,-2.4364,-2.4387,-2.4189,-2.4191,-2.4193,0,-2.4322,-2.435,-2.4311,-2.4317,-2.4304,-2.4315,-2.4315,-2.4258,-2.4262,-2.4241,-2.4263,-2.4267,-2.4267,-2.4286,-2.4249,-2.425,-2.4226,-2.4295,-2.4226,-2.4242,-2.4228,-2.4227,-2.423,-2.4309,-2.4312,-2.4314,-2.4315,0,-2.4485,-2.4461,-2.4464,-2.446,-2.4463,-2.4457,-2.4447,-2.4456,-2.4394,-2.4402,-2.4411,-2.4411,-2.4412,-2.4418,-2.4412,-2.4395,-2.4346,-2.4338,-2.435,-2.4367,-2.4384,-2.4376,-2.4162,-2.4333,-2.4331,-2.433,-2.4329,-2.4328,-2.4611,-2.4632,-2.4609,-2.4615,-2.4601,-2.4594,-2.461,-2.458,-2.4586,-2.4583,-2.4549,-2.4565,-2.4545,-2.4531,-2.452,-2.4533,-2.45,-2.4518,-2.4523,-2.4528,-2.4539,-2.4383,-2.4531,-2.4531,-2.453,-2.453,-2.4529,0,-2.477,-2.4752,-2.4758,-2.4746,-2.4752,-2.4705,-2.4692,-2.47,-2.4715,-2.47,-2.4702,-2.4713,-2.4719,-2.4684,-2.4685,-2.4702,-2.468,-2.4704,-2.4703,-2.47,-2.4567,-2.4556,-2.4723,-2.4723,-2.4723,-2.4723,-2.4723,-2.4723,-2.4854,-2.4888,-2.4862,-2.489,-2.4871,-2.4886,-2.4883,-2.4877,-2.4865,-2.488,-2.4885,-2.4862,-2.484,-2.4839,-2.4843,-2.4832,-2.4836,-2.4869,-2.4851,-2.4728,-2.4709,-2.4691,-2.468,-2.487,-2.487,-2.4983,-2.4984,-2.4984]},{"header":{"parameterUnit":"m.s-1","parameterCategory":1,"la1":30.2991,"la2":30.254,"lo1":-89.0895,"lo2":-89.0444,"dx":0.0017,"dy":0.0017,"nx":28,"ny":28,"refTime":"2022-11-05T15:00:00:Z","depth":0,"parameterNumber":3,"parameterNumberName":"V-component_of_WINDS"},"data":[0,0,0,0,0,0,0,0,0,0,0,0,0,0,0,0,0,0,0,0,0,0,0,0,0,0,0,0,0,0,0,0,0,0,0,0,0,0,0,0,0,0,0,0,0,0,0,0,0,0,0,0,0,0,0,0,0,0,1.243,1.2431,0,1.2467,1.2467,1.2467,1.2503,1.2503,1.2504,1.2504,1.2538,1.2539,1.2539,0,0,0,0,0,0,0,0,0,0,0,0,0,1.2388,1.2389,1.243,1.2431,1.2431,1.2466,1.2467,1.2467,1.2503,1.2503,1.2504,1.2505,1.2538,1.2539,1.2539,0,0,0,0,0,0,0,0,0,0,0,0,0,1.2414,1.2389,1.243,1.2453,1.2456,1.2466,1.2467,1.2468,1.2503,1.2504,1.2504,1.2505,1.2538,1.2539,1.2539,1.2529,0,0,1.2542,1.2542,0,0,0,0,0,0,0,0,1.2412,1.2415,1.2449,1.2451,1.2454,1.2481,1.2465,1.2488,1.2503,1.2485,1.2504,1.2505,1.2519,1.2521,1.2526,1.2531,1.2533,1.2542,1.2542,1.2542,1.2543,0,0,0,0,0,0,0,1.241,1.2414,1.2444,1.245,1.2453,1.2461,1.2465,1.2469,1.2497,1.2486,1.2489,1.2493,1.252,1.2525,1.2527,1.2533,1.2542,1.2542,1.2543,1.2543,1.2532,1.2531,0,0,0,0,0,0,1.2406,1.2412,1.2443,1.2446,1.2435,1.2461,1.2466,1.2472,1.2497,1.2502,1.2492,1.2495,1.2524,1.2526,1.2528,1.2519,1.2542,1.2543,1.2543,1.2533,1.2532,1.2531,0,0,0,0,0,0,1.2405,1.2408,1.2442,1.243,1.2435,1.2461,1.2467,1.2472,1.2477,1.2502,1.2507,1.2493,1.2524,1.2527,1.2529,1.252,1.2543,1.2544,1.2533,1.2532,1.2531,1.2499,0,0,0,0,0,0,1.2403,1.2408,1.2405,1.2429,1.2435,1.2443,1.2467,1.2472,1.2479,1.2482,1.2503,1.2508,1.2525,1.2528,1.253,1.2522,1.2544,1.2534,1.2533,1.2532,1.2501,1.2497,1.2493,0,0,0,0,0,1.2402,1.2393,1.2404,1.2408,1.2432,1.2442,1.2445,1.2467,1.2478,1.2475,1.2491,1.2507,1.2521,1.2528,1.253,1.2522,1.2535,1.2533,1.2532,1.2502,1.2497,1.2493,0,0,0,0,0,0,1.2365,1.2397,1.2409,1.2409,1.2423,1.2448,1.2445,1.2461,1.2471,1.2473,1.2498,1.2502,1.2501,1.2512,1.2519,1.2514,1.253,1.2529,1.2507,1.2502,1.2499,1.2496,1.2545,0,0,0,0,0,1.2357,1.2364,1.2391,1.2387,1.2394,1.2418,1.2423,1.2439,1.2453,1.2459,1.2475,1.2488,1.2495,1.25,1.2508,1.2502,1.2507,1.2498,1.2494,1.2491,1.2489,1.2487,1.2484,1.2526,1.2526,1.2526,0,0,1.234,1.2359,1.2361,1.2381,1.2393,1.2398,1.2423,1.2427,1.2431,1.2459,1.2462,1.2475,1.2491,1.2489,1.2489,1.2498,1.2479,1.2489,1.2486,1.2487,1.2485,1.2481,1.2478,1.2525,1.2525,1.2525,0,0,1.2313,1.2327,1.2327,1.2339,1.2358,1.2375,1.2374,1.2398,1.2407,1.2411,1.2432,1.2437,1.2449,1.246,1.2467,1.2444,1.2459,1.2446,1.2426,1.2424,1.242,1.2417,1.2409,1.2406,1.2444,1.2444,1.2444,0,1.2289,1.2299,1.2324,1.2327,1.2335,1.2363,1.2361,1.2372,1.2392,1.2396,1.2406,1.2423,1.2435,1.2437,1.2431,1.2436,1.2436,1.2443,1.2419,1.2416,1.2414,1.2406,1.2403,1.2443,1.2443,1.2443,1.2443,0,1.2269,1.2276,1.2273,1.2293,1.2301,1.2302,1.2326,1.233,1.2345,1.236,1.2363,1.2379,1.2392,1.2393,1.2407,1.2396,1.2401,1.2415,1.2431,1.2408,1.2401,1.2398,1.244,1.2441,1.2441,1.2442,0,0,1.2219,1.2254,1.2252,1.2262,1.2285,1.229,1.2293,1.2306,1.2309,1.2322,1.2324,1.2334,1.2347,1.2355,1.237,1.2369,1.2349,1.2382,1.2383,1.2375,1.2338,1.2327,1.2323,1.236,1.2359,1.2359,1.2336,0,1.2195,1.2202,1.2224,1.2224,1.223,1.2256,1.2258,1.2272,1.2286,1.2293,1.2308,1.2315,1.2332,1.2337,1.2336,1.2352,1.2342,1.2354,1.2361,1.2361,1.2356,1.232,1.2309,1.2286,1.2334,1.2333,1.2333,0,1.2168,1.2181,1.2181,1.2205,1.2209,1.221,1.2224,1.223,1.2246,1.2257,1.2266,1.2284,1.2287,1.2303,1.2307,1.2315,1.2319,1.2327,1.2327,1.2328,1.2345,1.2319,1.228,1.2276,1.2329,1.2329,1.233,0,1.2131,1.2148,1.2151,1.2158,1.2186,1.2187,1.2198,1.2215,1.2222,1.2234,1.2238,1.2249,1.2256,1.2264,1.2284,1.2294,1.2285,1.2303,1.2293,1.2293,1.229,1.2289,1.225,1.2293,1.2293,1.2293,1.2293,0,1.2101,1.2101,1.2135,1.2136,1.2136,1.2162,1.216,1.2174,1.2189,1.2193,1.2216,1.2219,1.2246,1.2252,1.2267,1.2268,1.2271,1.2279,1.2283,1.2276,1.2275,1.2279,1.2281,1.2292,1.2293,1.2293,1.2293,0,1.206,1.2083,1.2087,1.2114,1.2121,1.2119,1.2141,1.2143,1.2159,1.2164,1.2167,1.2191,1.2199,1.2221,1.2234,1.2244,1.224,1.2248,1.2235,1.2238,1.2226,1.2227,1.2187,1.2183,1.2229,1.2229,1.2229,0,1.2039,1.204,1.2067,1.2072,1.2083,1.209,1.2097,1.2122,1.2129,1.2148,1.2147,1.2158,1.2167,1.2179,1.2197,1.2207,1.2215,1.2201,1.2217,1.221,1.2214,1.2214,1.2214,1.2197,1.2196,1.2196,1.2195,0,1.2001,1.2012,1.2022,1.2037,1.2045,1.2057,1.207,1.2072,1.21,1.2106,1.2115,1.2123,1.2137,1.2147,1.216,1.2171,1.2187,1.219,1.2188,1.2182,1.2174,1.2178,1.2225,1.2191,1.2191,1.2192,1.2192,1.2192,1.1969,1.197,1.199,1.2,1.2013,1.2025,1.2029,1.2046,1.2054,1.2069,1.2083,1.209,1.2107,1.2126,1.2136,1.2142,1.215,1.2148,1.2147,1.2146,1.2143,1.2174,1.2144,1.2144,1.2144,1.2144,1.2145,0,1.1931,1.1945,1.1955,1.1973,1.1981,1.1998,1.2013,1.2019,1.2026,1.204,1.2049,1.206,1.2069,1.2089,1.21,1.2101,1.2109,1.2103,1.2103,1.2105,1.2134,1.2135,1.2096,1.2096,1.2096,1.2096,1.2096,1.2096,1.1913,1.1916,1.193,1.194,1.1954,1.1963,1.197,1.1981,1.1993,1.2004,1.2013,1.2026,1.2042,1.2054,1.2064,1.2069,1.2072,1.2063,1.2071,1.2098,1.2103,1.2107,1.2107,1.2064,1.2064,1.2041,1.204,1.204]}]]